Regional Weather Roundup
Issued by NWS

Home | Current Version | Previous Version | Text Only | Print | Product List | Glossary On
Versions: 1 2 3 4 5 6 7 8 9 10 11 12 13 14 15 16 17 18 19 20 21 22 23 24 25 26 27 28 29 30 31 32 33 34 35 36 37 38 39 40 41 42 43 44 45 46 47 48 49 50
000
ASUS43 KOAX 271010
RWRNE

WEATHER ROUNDUP FOR NEBRASKA
NATIONAL WEATHER SERVICE OMAHA NE
400 AM CST THU NOV 27 2014

NOTES: SATELLITE DATA IS BEING USED TO AUGMENT CLOUD COVER ABOVE
       12000 FEET.
       "FAIR" INDICATES FEW OR NO CLOUDS BELOW 12,000 FEET WITH NO
       SIGNIFICANT WEATHER AND/OR OBSTRUCTIONS TO VISIBILITY.

  * THESE STATIONS DO NOT REPORT WEATHER SUCH AS RAIN...SNOW OR FOG.

NEZ001>004-019>022-054>056-271100-
NEBRASKA PANHANDLE

CITY           SKY/WX    TMP DP  RH WIND       PRES   REMARKS
SCOTTSBLUFF    MOCLDY    14  12  92 NW5       30.21F WCI   6
ALLIANCE       CLEAR     21  19  92 S7        30.19F WCI  12
CHADRON        PTCLDY   N/A N/A N/A CALM      30.20F
KIMBALL        MOCLDY    28  25  87 W12       30.19S WCI  18
SIDNEY         PTCLDY    13  11  92 SW6       30.23S WCI   4
$$

NEZ057>060-069>072-079>082-271100-
SOUTHWEST NEBRASKA

CITY           SKY/WX    TMP DP  RH WIND       PRES   REMARKS
NORTH PLATTE   CLOUDY    25  19  78 SE7       30.31F WCI  17
IMPERIAL       PTCLDY    21  18  88 SE9       30.29F WCI  11
LEXINGTON      CLOUDY    23  18  81 S5        30.38F WCI  17
MCCOOK         CLEAR     22  16  78 S6        30.36F WCI  14
OGALLALA       PTCLDY   N/A N/A N/A CALM      30.29F HAZE
$$

NEZ005>010-023>029-035>040-094-271100-
NORTH CENTRAL NEBRASKA

CITY           SKY/WX    TMP DP  RH WIND       PRES   REMARKS
VALENTINE      CLOUDY    23  17  78 SE8       30.33S WCI  14
AINSWORTH      CLOUDY    23  17  80 SE10      30.31F WCI  12
BROKEN BOW     CLOUDY    23  16  74 SE5       30.36F WCI  17
O`NEILL        CLOUDY    16  10  76 E7        30.41F WCI   6
ORD            CLOUDY    19  14  81 CALM      30.39F
THEDFORD       CLOUDY    28  21  75 E3        30.32S
$$

NEZ041-046>049-061>064-073>077-083>087-271100-
SOUTH CENTRAL NEBRASKA

CITY           SKY/WX    TMP DP  RH WIND       PRES   REMARKS
GRAND ISLAND   CLOUDY    18  13  80 E3        30.42F
AURORA         PTCLDY    16  10  80 NE7       30.41F WCI   6
HASTINGS       CLOUDY    21  13  71 CALM      30.42R
HEBRON         CLOUDY    19  13  77 NE3       30.46S
HOLDREGE       PTCLDY    19  15  82 CALM      30.40S
KEARNEY *      CLOUDY    19  14  79 SE3       30.41F
YORK           CLEAR     14  10  85 NE8       30.43F WCI   3
$$

NEZ011>018-030>034-042>045-271100-
NORTHEAST NEBRASKA

CITY           SKY/WX    TMP DP  RH WIND       PRES   REMARKS
NORFOLK        CLOUDY    16   8  71 NE3       30.45S
ALBION         CLOUDY    19   9  64 E3        30.44S
BLAIR          PTCLDY    15  10  82 NW7       30.47S WCI   5
COLUMBUS *     CLOUDY    16   9  73 E5        30.47S WCI   9
FREMONT        CLEAR     13  10  87 CALM      30.50R
TEKAMAH        CLOUDY    17  10  74 N9        30.51S WCI   6
WAYNE          CLOUDY    14   8  78 N9        30.48F WCI   1
$$

NEZ050>053-065>068-078-088>093-271100-
SOUTHEAST NEBRASKA

CITY           SKY/WX    TMP DP  RH WIND       PRES   REMARKS
LINCOLN        CLEAR     13   8  81 NE5       30.50F WCI   5
OMAHA EPPLEY   PTCLDY    15  11  83 N5        30.52S WCI   8
BEATRICE       CLEAR     15  12  87 NE5       30.47S WCI   8
FALLS CITY     CLOUDY    23  17  78 NW10      30.49R WCI  12
NEBRASKA CITY  PTCLDY    17  12  80 N6        30.49S WCI   8
PLATTSMOUTH    CLEAR     14  10  85 W5        30.49S WCI   7
$$

NEZ044-045-051>053-067-271100-
OMAHA AREA

CITY           SKY/WX    TMP DP  RH WIND       PRES   REMARKS
OMAHA EPPLEY   PTCLDY    15  11  83 N5        30.52S WCI   8
BLAIR          PTCLDY    15  10  82 NW7       30.47S WCI   5
FREMONT        CLEAR     13  10  87 CALM      30.50R
MILLARD        CLEAR     18  11  76 N3        30.50S
OFFUTT AFB     CLEAR     14  10  83 N6        30.49F WCI   5
PLATTSMOUTH    CLEAR     14  10  85 W5        30.49S WCI   7
WAHOO          FAIR      14   9  81 N3        30.49S
$$



USA.gov is the U.S. government's official web portal to all federal, state and local government web resources and services.